Home   Weather   Xi'an   Past weeks

Flag for China Past Weather in Xi'an, Shaanxi, China — Yesterday and Last 2 Weeks

Now
99 °F

Passing clouds.


Feels Like: 98 °F
Forecast: 71 / 95 °F
Wind: 8 mph from Northeast

Location: Xian/Xianyang

Current Time: Jun 28, 2017 at 4:48:57 pm

Latest Report: Jun 28, 2017 at 4:00 pm


Visibility: N/A

Pressure: 29.68 "Hg

Humidity: 27%

Dew Point: 59 °F

Location of Xi'anLocation

Past Weather in Xi'an — Graph

°F

Xi'an Temperature Yesterday

Maximum temperature yesterday: 99 °F (at 3:00 pm)
Minimum temperature yesterday: 66 °F (at 5:00 am)
Average temperature yesterday: 83 °F

High & Low Weather Summary for the Past Weeks

 TemperatureHumidityPressure
High99 °F (Jun 26, 4:00 pm)94% (Jun 15, 4:00 am)29.92 "Hg (Jun 15, 4:00 am)
Low63 °F (Jun 15, 4:00 am)18% (Jun 26, 4:00 pm)29.50 "Hg (Jun 21, 5:00 pm)
Average80 °F53%29.72 "Hg
* Reported Jun 13 3:00 pm — Jun 28 3:00 pm, Xi'an. Weather by CustomWeather, © 2017

Note: Actual official high and low records may vary slightly from our data, if they occured in-between our weather recording intervals... More about our weather records

Advertising

Xi'an Weather History for the Previous 24 Hours

Scroll right to see more
 ConditionsComfort  
Time TempWeatherWind HumidityBarometerVisibility
3:00 pm
Wed, Jun 28
97 °FPassing clouds.8 mph30%29.68 "HgN/A
2:00 pm97 °FSunny.6 mph30%29.71 "Hg10 mi
1:00 pm95 °FPassing clouds.3 mph32%29.74 "HgN/A
12:00 pm91 °FSunny.3 mph36%29.77 "Hg10 mi
11:00 am88 °FSunny.1 mph40%29.77 "Hg10 mi
10:00 am86 °FSunny.1 mph43%29.77 "Hg10 mi
9:00 am84 °FPassing clouds.3 mph45%29.77 "HgN/A
8:00 am82 °FPassing clouds.3 mph48%29.77 "HgN/A
7:00 am75 °FSunny.1 mph65%29.77 "Hg10 mi
6:00 am72 °FClear.No wind69%29.77 "Hg10 mi
5:00 am72 °FClear.3 mph65%29.74 "Hg10 mi
4:00 am68 °FClear.3 mph83%29.74 "Hg10 mi
3:00 am68 °FClear.1 mph88%29.74 "Hg10 mi
2:00 am70 °FClear.1 mph83%29.71 "Hg10 mi
1:00 am72 °FClear.1 mph73%29.71 "Hg10 mi
12:00 am73 °FClear.No wind69%29.71 "Hg10 mi
11:00 pm
Tue, Jun 27
77 °FClear.No wind57%29.74 "Hg10 mi
10:00 pm81 °FClear.1 mph51%29.71 "Hg10 mi
9:00 pm86 °FSunny.1 mph38%29.71 "Hg10 mi
8:00 pm90 °FPassing clouds.3 mph36%29.68 "HgN/A
7:00 pm91 °FPassing clouds.8 mph34%29.68 "HgN/A
6:00 pm95 °FPassing clouds.8 mph26%29.65 "HgN/A
5:00 pm99 °FPassing clouds.6 mph24%29.65 "HgN/A
4:00 pm99 °FPassing clouds.10 mph21%29.68 "HgN/A
Weather by CustomWeather, © 2017

See weather overviewHow to use our weather pages